Station SWPM4 - 9076070 - S.W. Pier, MI Image indicating link to RSS feed of recent meteorological observations for station SWPM4


Conditions at SWPM4 as of
(3:54 am EDT)
0754 GMT on 05/20/2024:
     

Click on the graph icon in the table below to see a time series plot of the last five days of that observation.

5-day plot - Wind Direction Wind Direction (WDIR):SSW ( 210 deg true )
5-day plot - Wind Speed Wind Speed (WSPD): 1.0 kts
5-day plot - Wind Gust Wind Gust (GST): 1.0 kts
5-day plot - Atmospheric Pressure Atmospheric Pressure (PRES):29.95 in
5-day plot - Air Temperature Air Temperature (ATMP): 53.8 °F
5-day plot - Water Temperature Water Temperature (WTMP): 48.6 °F
5-day plot - Wind Speed at 10 Meters Wind Speed at 10 meters (WSPD10M): 1.9 kts
5-day plot - Wind Speed at 20 Meters Wind Speed at 20 meters (WSPD20M): 1.9 kts
5-day plot -  Wind Speed, Wind Gust and Atmospheric Pressure Combined plot of Wind Speed, Gust, and Air Pressure
NOS Water Level Observation Network Water Level
Previous observations
TIME
(EDT)
5-day plot - Wind Direction
WDIR
 
5-day plot - Wind Speed
WSPD
kts
5-day plot - Wind Gust
GST
kts
5-day plot - Wave Height
WVHT
ft
5-day plot - Dominant Wave Period
DPD
sec
5-day plot - Average Wave Period
APD
sec
5-day plot - Mean Wave Direction
MWD
 
5-day plot - Atmospheric Pressure
PRES
in
5-day plot - Pressure Tendency
PTDY
in
5-day plot - Air Temperature
ATMP
°F
5-day plot - Water Temperature
WTMP
°F
5-day plot - Dew Point
DEWP
°F
5-day plot - Salinity
SAL
psu
5-day plot - Visibility
VIS
nmi
5-day plot - Tide (above MLLW)
TIDE
ft
2024-05-20 03:48 am- 0.0 1.0----29.95- 53.8 48.6----
2024-05-20 03:42 am- 0.0 2.9----29.94- 54.5 48.4----
2024-05-20 03:36 amESE 2.9 4.1----29.94- 54.7 48.6----
2024-05-20 03:30 amESE 2.9 4.1----29.94- 54.9 48.6----
2024-05-20 03:24 amESE 2.9 4.1----29.94- 55.2 48.6----
2024-05-20 03:18 am E 2.9 4.1----29.93- 55.4 48.6----
2024-05-20 03:12 amESE 2.9 4.1----29.93- 55.2 48.6----
2024-05-20 03:06 amESE 1.9 4.1----29.93- 55.4 48.6----
2024-05-20 03:00 am E 1.9 4.1----29.93+0.00 55.6 48.6----
2024-05-20 02:54 am E 2.9 4.1----29.93- 55.4 48.6----
2024-05-20 02:48 amESE 1.9 1.9----29.94- 54.9 48.6----
2024-05-20 02:42 am E 1.9 1.9----29.94- 54.5 48.6----
2024-05-20 02:36 am E 1.9 2.9----29.95- 54.7 48.6----
2024-05-20 02:30 am E 2.9 2.9----29.95- 55.2 48.6----
2024-05-20 02:24 am E 1.9 2.9----29.95- 54.7 48.6----
2024-05-20 02:18 amESE 1.9 2.9----29.95- 54.1 48.6----
2024-05-20 02:12 am- 0.0 0.0----29.95- 54.0 48.6----
2024-05-20 02:06 am- 0.0 0.0----29.95- 54.3 48.6----
2024-05-20 02:00 am- 0.0 1.0----29.96+0.00 54.3 48.6----
2024-05-20 01:54 am- 0.0 1.0----29.95- 54.5 48.6----
2024-05-20 01:48 am- 0.0 1.0----29.95- 54.3 48.6----
2024-05-20 01:42 am- 0.0 1.9----29.95- 54.3 48.6----
2024-05-20 01:36 am- 0.0 1.0----29.94- 54.0 48.6----
2024-05-20 01:30 am- 0.0 1.0----29.95- 53.8 48.6----
2024-05-20 01:24 am- 0.0 0.0----29.95- 53.6 48.6----
2024-05-20 01:18 am-------29.94-- 48.6----
2024-05-20 01:12 am-------29.94-- 48.6----
2024-05-20 01:06 am-------29.94-- 48.6----
2024-05-20 01:00 amNNW 1.0 1.9----29.94-0.01 54.0 48.6----
2024-05-20 12:54 amWNW 1.0 1.9----29.93- 54.3 48.6----
2024-05-20 12:48 am- 0.0 0.0----29.93- 54.5 48.6----
2024-05-20 12:42 am- 0.0 1.9----29.94- 54.5 48.6----
2024-05-20 12:36 amENE 1.9 1.9----29.94- 54.9 48.6----
2024-05-20 12:30 am- 0.0 1.0----29.93- 54.7 48.6----
2024-05-20 12:24 am- 0.0 1.9----29.94- 54.9 48.6----
2024-05-20 12:18 amWSW 1.9 1.9----29.95- 55.2 48.6----
2024-05-20 12:12 am- 0.0 1.9----29.94- 55.6 48.6----
2024-05-20 12:06 amENE 1.0 1.9----29.93- 55.8 48.6----
2024-05-20 12:00 am E 1.9 1.9----29.93-0.01 55.8 48.6----
2024-05-19 11:54 pm- 0.0 1.0----29.94- 55.2 48.6----
2024-05-19 11:48 pm- 0.0 0.0----29.94- 55.2 48.6----
2024-05-19 11:42 pm- 0.0 0.0----29.95- 55.2 48.6----
2024-05-19 11:36 pm- 0.0 0.0----29.94- 55.0 48.6----
2024-05-19 11:30 pm- 0.0 1.0----29.95- 55.0 48.6----
2024-05-19 11:24 pm- 0.0 1.9----29.95- 55.0 48.6----
2024-05-19 11:18 pm N 1.9 2.9----29.95-- 48.6----
2024-05-19 11:12 pmNNW 1.9 2.9----29.96-- 48.6----
2024-05-19 11:06 pmNNW 1.9 4.1----29.96-- 48.6----
2024-05-19 11:00 pm NW 2.9 4.1----29.95+0.00 55.6 48.6----
2024-05-19 10:54 pm N 2.9 4.1----29.95- 54.9 48.6----
2024-05-19 10:48 pmWNW 1.9 2.9----29.95- 57.0 48.6----
2024-05-19 10:42 pm NW 1.0 1.9----29.96- 56.8 48.6----
2024-05-19 10:36 pmSSW 1.0 2.9----29.96- 57.4 48.6----
2024-05-19 10:30 pm S 1.9 4.1----29.96- 58.5 48.6----
2024-05-19 10:24 pmSSW 1.9 2.9----29.96- 57.7 48.6----
2024-05-19 10:18 pmSSW 1.9 4.1----29.96- 58.1 48.6----
2024-05-19 10:12 pm SW 4.1 5.1----29.96- 59.0 48.6----
2024-05-19 10:06 pm SW 4.1 5.1----29.95- 60.1 48.6----
2024-05-19 10:00 pm SW 4.1 5.1----29.95- 59.4 48.6----
2024-05-19 09:54 pm SW 2.9 5.1----29.94- 59.9 48.6----
2024-05-19 09:48 pm SW 4.1 5.1----29.94- 60.4 48.6----
2024-05-19 09:42 pm SW 4.1 4.1----29.94- 61.0 48.6----
2024-05-19 09:36 pm SW 4.1 6.0----29.94- 61.5 48.6----
2024-05-19 09:30 pm SW 6.0 7.0----29.95-- 48.6----
2024-05-19 09:24 pm SW 5.1 6.0----29.94-- 48.6----
2024-05-19 09:18 pmWSW 5.1 6.0----29.94-- 48.6----
2024-05-19 09:12 pm SW 6.0 6.0----29.95-- 48.6----
2024-05-19 09:06 pmWSW 6.0 7.0----29.94-- 48.6----
2024-05-19 09:00 pm W 6.0 8.0----29.95-- 48.6----
2024-05-19 08:54 pm W 7.0 8.0----29.95-- 48.6----
2024-05-19 08:48 pmWNW 6.0 7.0----29.95- 64.6 48.6----
2024-05-19 08:42 pmWNW 5.1 6.0----29.95- 64.4 48.6----
2024-05-19 08:36 pm NW 7.0 8.0----29.95- 64.0 48.6----
2024-05-19 08:30 pmWNW 7.0 8.0----29.95- 65.3 48.6----
2024-05-19 08:24 pm NW 6.0 8.0----29.95- 65.1 48.6----
2024-05-19 08:18 pm---------- 48.6----
2024-05-19 08:12 pm---------- 48.6----
2024-05-19 08:06 pm---------- 48.6----
2024-05-19 08:00 pmWNW 7.0 9.9----29.96+0.00- 48.6----
2024-05-19 07:54 pm NW 8.9 9.9----29.96-- 48.6----
2024-05-19 07:42 pm NW 8.0 9.9------------
2024-05-19 07:36 pm NW 8.9 12.0------------
2024-05-19 07:30 pm NW 7.0 11.1----29.95- 66.6 48.6----
2024-05-19 07:24 pm NW 5.1 7.0----29.95- 67.1 48.6----
2024-05-19 07:18 pmNNW 5.1 8.9----29.95- 66.4 48.6----
2024-05-19 07:12 pmNNW 7.0 9.9----29.95- 66.6 48.6----
2024-05-19 07:06 pmNNW 7.0 9.9----29.95- 66.6 48.6----
2024-05-19 07:00 pm NW 6.0 8.0------- 48.6----
2024-05-19 06:54 pmNNW 6.0 8.0------- 48.6----
2024-05-19 06:48 pmNNW 7.0 9.9----29.95-- 48.6----
2024-05-19 06:42 pm NW 8.0 13.0----29.95-- 48.6----
2024-05-19 06:36 pmNNW 8.9 15.0----29.95-- 48.6----
2024-05-19 06:30 pm NW 7.0 12.0----29.95-- 48.6----
2024-05-19 06:24 pm NW 8.9 13.0----29.95-- 48.6----
2024-05-19 06:12 pm-------29.96- 65.5 48.6----
2024-05-19 06:06 pm-------29.96- 65.8 48.6----
2024-05-19 05:54 pm NW 9.9 14.0----29.96- 65.7 48.6----
2024-05-19 05:48 pm NW 8.9 14.0----29.95- 66.0 48.6----
2024-05-19 05:42 pm NW 8.0 11.1----29.96- 65.7 48.6----
2024-05-19 05:36 pm NW 9.9 12.0----29.96- 65.7 48.6----
2024-05-19 05:30 pm NW 8.0 14.0----29.96- 65.5 48.7----
2024-05-19 05:24 pm NW 8.0 11.1----29.96- 65.5 48.6----
2024-05-19 05:18 pm NW 8.0 11.1----29.96- 64.4 48.6----
2024-05-19 05:12 pm NW 9.9 15.0----29.96- 64.9 48.6----
2024-05-19 05:06 pmNNW 9.9 14.0----29.96- 64.9 48.6----
2024-05-19 05:00 pmNNW 9.9 13.0----29.95+0.00 64.6 48.6----
2024-05-19 04:54 pmNNW 9.9 14.0----29.95- 64.6 48.6----
2024-05-19 04:48 pmNNW 9.9 13.0----29.95- 64.6 48.6----
2024-05-19 04:42 pmNNW 8.9 12.0----29.95- 63.5 48.6----
2024-05-19 04:36 pmNNW 9.9 14.0----29.95- 64.2 48.6----
2024-05-19 04:30 pm N 12.0 15.0----29.95- 64.0 48.6----
2024-05-19 04:24 pmNNW 8.9 12.0----29.95- 64.0 48.6----
2024-05-19 04:18 pmNNW 9.9 17.1----29.95- 64.0 48.6----
2024-05-19 04:12 pmNNW 8.9 15.0----29.95- 64.0 48.6----
2024-05-19 04:06 pm NW 11.1 14.0----29.95- 64.2 48.6----
2024-05-19 04:00 pm NW 13.0 15.9----29.95+0.01- 48.6----
2024-05-19 03:54 pmNNW 14.0 17.1----29.96-- 48.6----
2024-05-19 03:48 pmNNW 11.1 15.0----29.96-- 48.6----
2024-05-19 03:42 pm NW 12.0 15.0----29.95-- 48.6----
2024-05-19 03:36 pmNNW 14.0 17.1----29.95-- 48.6----
2024-05-19 03:30 pmNNW 12.0 15.0----29.94- 63.5 48.6----
2024-05-19 03:24 pm NW 11.1 15.9----29.95- 63.3 48.7----
2024-05-19 03:18 pm NW 14.0 19.0----29.95- 63.3 48.6----
2024-05-19 03:12 pm NW 12.0 15.0----29.96- 63.1 48.6----
2024-05-19 03:06 pmNNW 11.1 15.9----29.95- 63.1 48.7----
2024-05-19 03:00 pm NW 14.0 19.0----29.95+0.02- 48.6----
2024-05-19 02:54 pm NW 14.0 18.1----29.95-- 48.6----
2024-05-19 02:48 pmNNW 15.0 18.1----29.95- 62.6 48.6----
2024-05-19 02:42 pm NW 13.0 18.1----29.95- 62.8 48.4----
2024-05-19 02:36 pm NW 15.0 19.0----29.94- 62.4 48.6----
2024-05-19 02:30 pmNNW 15.9 19.0----29.94- 62.6 48.6----
2024-05-19 02:24 pmNNW 13.0 17.1----29.94- 62.4 48.6----
2024-05-19 02:18 pm NW 14.0 18.1----29.94- 62.6 48.4----
2024-05-19 02:12 pm NW 14.0 18.1----29.94- 62.6 48.6----
2024-05-19 02:06 pm NW 12.0 17.1----29.94- 62.4 48.6----
2024-05-19 02:00 pmNNW 15.0 19.0----29.94+0.02 62.2 48.6----
2024-05-19 01:54 pm NW 9.9 17.1----29.94- 62.6 48.6----
2024-05-19 01:48 pmNNW 11.1 15.9----29.94- 62.6 48.6----
2024-05-19 01:42 pmNNW 12.0 15.0----29.94- 61.9 48.6----
2024-05-19 01:36 pm NW 9.9 15.0----29.95- 61.9 48.2----
2024-05-19 01:30 pm NW 13.0 19.0----29.95- 61.9 48.2----
2024-05-19 01:24 pmWNW 14.0 20.0----29.95- 61.7 48.2----
2024-05-19 01:18 pm NW 13.0 18.1----29.95-- 48.2----
2024-05-19 01:12 pm NW 14.0 17.1----29.94-- 48.2----
2024-05-19 01:06 pm NW 13.0 17.1----29.94-- 48.2----
2024-05-19 01:00 pm NW 15.0 20.0----29.94+0.04- 48.2----
2024-05-19 12:54 pmWNW 13.0 20.0----29.94-- 48.2----
2024-05-19 12:48 pmWNW 14.0 17.1----29.93- 62.1 48.2----
2024-05-19 12:42 pmWNW 13.0 19.0----29.93- 62.1 48.2----
2024-05-19 12:36 pmWNW 14.0 18.1----29.93- 61.7 48.2----
2024-05-19 12:30 pmWNW 15.0 17.1----29.93- 61.7 48.2----
2024-05-19 12:24 pm NW 14.0 17.1----29.93- 61.9 48.2----
2024-05-19 12:18 pm NW 12.0 18.1----29.93- 62.1 48.2----
2024-05-19 12:12 pm NW 12.0 15.0----29.93- 61.9 48.2----
2024-05-19 12:06 pm NW 9.9 15.9----29.93- 61.2 48.2----
2024-05-19 12:00 pm NW 11.1 17.1----29.93+0.04 61.3 48.2----
2024-05-19 11:54 amWNW 15.9 19.0----29.93- 60.8 48.2----
2024-05-19 11:48 am NW 13.0 15.0----29.93- 61.3 48.2----
2024-05-19 11:42 amWNW 11.1 19.0----29.93- 60.8 48.2----
2024-05-19 11:36 am NW 13.0 17.1----29.93- 61.3 48.2----
2024-05-19 11:30 am NW 13.0 17.1----29.93- 61.7 48.2----
2024-05-19 11:24 am NW 12.0 15.0----29.93- 61.3 48.2----
2024-05-19 11:18 am-------29.93- 61.2 48.2----
2024-05-19 11:12 am-------29.93- 60.6 48.2----
2024-05-19 11:06 am-------29.93- 60.4 48.2----
2024-05-19 11:00 am-------29.92- 60.6 48.2----
2024-05-19 10:54 am-------29.92- 60.6 48.2----
2024-05-19 10:48 am-------29.92- 60.3 48.2----
2024-05-19 10:42 am-------29.92- 61.0 48.2----
2024-05-19 10:36 am-------29.92- 60.1 48.2----
2024-05-19 10:30 am W 9.9 13.0----29.92- 59.7 48.2----
2024-05-19 10:24 am W 8.0 11.1----29.92- 59.5 48.2----
2024-05-19 10:18 amWNW 9.9 14.0----29.92- 60.6 48.2----
2024-05-19 10:12 amWNW 11.1 15.0----29.91- 61.3 48.2----
2024-05-19 10:06 amWNW 8.9 12.0----29.91- 61.0 48.2----
2024-05-19 10:00 amWNW 8.0 11.1----29.91+0.05- 48.2----
2024-05-19 09:54 am W 8.0 9.9----29.90-- 48.2----
2024-05-19 09:48 am-------29.90- 57.4 48.2----
2024-05-19 09:42 am-------29.90- 58.5 48.2----
2024-05-19 09:36 am-------29.90- 57.9 48.2----
2024-05-19 09:30 amWNW 6.0 8.9----29.89-- 48.2----
2024-05-19 09:24 am W 5.1 7.0----29.89-- 48.2----
2024-05-19 09:18 am NW 5.1 8.0----29.89-- 48.2----
2024-05-19 09:12 amWNW 5.1 8.0----29.89-- 48.2----
2024-05-19 09:06 am W 2.9 7.0----29.89-- 48.2----
2024-05-19 09:00 amWNW 5.1 6.0----29.89+0.06- 48.2----
2024-05-19 08:54 amWNW 5.1 8.0----29.89-- 48.2----
2024-05-19 08:48 amWNW 7.0 8.9----29.89- 55.4 48.2----
2024-05-19 08:42 amWNW 7.0 8.9----29.88- 55.2 48.2----
2024-05-19 08:30 am-------29.88- 54.9-----
2024-05-19 08:24 am-------29.88- 55.0-----
2024-05-19 08:18 amWNW 8.9 9.9----29.88-- 48.0----
2024-05-19 08:12 amWNW 8.0 11.1----29.88-- 48.0----
2024-05-19 08:06 amWNW 8.0 9.9----29.88-- 48.0----
2024-05-19 07:54 amWNW 6.0 9.9----29.88- 55.0 48.0----
2024-05-19 07:48 am NW 8.0 12.0----29.88- 55.4 48.0----
2024-05-19 07:42 am NW 8.9 15.0----29.87- 55.4 48.0----
2024-05-19 07:36 amWNW 8.0 15.9----29.87- 55.6 48.0----
2024-05-19 07:30 amWNW 11.1 15.9----29.87- 56.3 48.0----
2024-05-19 07:24 amWNW 8.9 13.0----29.86- 56.3 48.0----
2024-05-19 07:18 amWNW 11.1 13.0----29.86- 57.2 48.0----
2024-05-19 07:12 amWNW 8.9 15.9----29.86- 57.9 48.0----
2024-05-19 07:06 am W 5.1 7.0----29.86- 57.0 48.0----
2024-05-19 07:00 amWSW 6.0 9.9----29.86+0.09------
2024-05-19 06:54 am W 7.0 12.0----29.86-------
2024-05-19 06:48 am W 7.0 9.9----29.85-- 48.0----
2024-05-19 06:42 amWSW 8.0 11.1----29.85-- 48.0----
2024-05-19 06:36 am W 5.1 7.0----29.85-- 48.0----
2024-05-19 06:30 am W 7.0 8.9----29.85- 54.9 48.0----
2024-05-19 06:24 amWSW 2.9 4.1----29.84- 51.3 48.0----
2024-05-19 06:18 amWSW 2.9 5.1----29.84-- 48.0----
2024-05-19 06:12 amWSW 5.1 5.1----29.84-- 48.0----
2024-05-19 06:06 am SW 2.9 6.0----29.83-- 48.0----
2024-05-19 06:00 am-------29.83+0.04------
2024-05-19 05:54 am-------29.83-------
2024-05-19 05:48 am W 4.1 5.1----29.82- 54.9 48.0----
2024-05-19 05:42 am W 2.9 2.9----29.82- 56.5 48.0----
2024-05-19 05:36 am W 2.9 2.9----29.82- 55.9 48.0----
2024-05-19 05:30 am- 0.0 1.9----29.81- 57.2 48.0----
2024-05-19 05:24 amSSE 1.9 1.9----29.80- 57.4 48.0----
2024-05-19 05:18 am S 1.0 2.9----29.81- 57.4 48.0----
2024-05-19 05:12 am S 1.0 1.9----29.81- 57.4 48.0----
2024-05-19 05:06 am- 0.0 1.9----29.81- 57.2 48.0----
2024-05-19 05:00 amSSE 1.9 2.9----29.81-0.03 58.1 48.0----
2024-05-19 04:54 am S 1.9 2.9----29.80- 57.4 48.0----
2024-05-19 04:48 am- 0.0 5.1----29.80- 57.7 48.0----
2024-05-19 04:42 am SE 2.9 5.1----29.80- 57.7 48.0----
2024-05-19 04:36 amENE 1.9 2.9----29.80- 57.4 48.0----
2024-05-19 04:30 amNNE 1.9 9.9----29.81- 57.4 48.0----
2024-05-19 04:24 am N 8.0 9.9----29.80- 57.0 48.2----
2024-05-19 04:18 am N 6.0 14.0----29.80- 56.7 48.0----
2024-05-19 04:12 am N 8.0 9.9----29.79- 56.1 48.0----
2024-05-19 04:06 amNNE 4.1 8.0----29.78- 55.0 48.0----
2024-05-19 04:00 am E 8.0 8.9----29.77- 56.5 48.0----
2024-05-19 03:54 am E 8.0 9.9----29.77- 55.9 48.0----